Regional Weather Roundup
Issued by NWS

Home | Current Version | Previous Version | Graphics & Text | Print | Product List | Glossary On
Versions: 1 2 3 4 5 6 7 8 9 10 11 12 13 14 15 16 17 18 19 20 21 22 23 24 25 26 27 28 29 30 31 32 33 34 35 36 37 38 39 40 41 42 43 44 45 46 47 48 49 50
000
ASUS43 KBIS 210320
RWRND

NORTH DAKOTA REGIONAL WEATHER ROUNDUP
NATIONAL WEATHER SERVICE BISMARCK ND
900 PM CST SAT DEC 20 2014

NOTE: "FAIR" INDICATES FEW OR NO CLOUDS BELOW 12,000 FEET WITH NO
SIGNIFICANT WEATHER AND/OR OBSTRUCTIONS TO VISIBILITY.


NDZ001>003-009>011-017-210400-
NORTHWEST NORTH DAKOTA

CITY           SKY/WX    TMP DP  RH WIND       PRES   REMARKS
WILLISTON      CLEAR     29  24  82 SE5       29.74F
MINOT          CLOUDY    33  31  92 SW8       29.72F
MINOT AFB      CLOUDY    31  31 100 NW2       29.72F
$$

NDZ018>021-031>035-040>046-210400-
SOUTHWEST NORTH DAKOTA

CITY           SKY/WX    TMP DP  RH WIND       PRES   REMARKS
BISMARCK       PTCLDY    21  20  96 SE3       29.81F
DICKINSON      MOCLDY    30  23  75 W8        29.75F
GARRISON         N/A     28  25  88 CALM      29.75F
HETTINGER ARPT CLOUDY    29  23  78 CALM      29.81F
$$

NDZ004>008-012>016-024-026-027-054-210400-
NORTHEAST NORTH DAKOTA

CITY           SKY/WX    TMP DP  RH WIND       PRES   REMARKS
GRAND FORKS    LGT SNOW  30  29  96 S15       29.89S VSB 1   WCI  19
GRND FRKS AFB  CLOUDY    30  30 100 S13       29.87F
DEVILS LAKE    CLOUDY    27  21  80 S9        29.79S WCI  17
$$

NDZ022-023-025-028>030-036>039-047>053-210400-
SOUTHEAST NORTH DAKOTA

CITY           SKY/WX    TMP DP  RH WIND       PRES   REMARKS
FARGO          CLOUDY    33  29  85 S21G29    29.90F FOG
JAMESTOWN      CLOUDY    28  25  88 S12       29.83S FOG     WCI  18
$$



USA.gov is the U.S. government's official web portal to all federal, state and local government web resources and services.